Location: Unspecified
(48.2082°N, 0.0000°E)
Time: 13:04:14
(UTC+00:00)

Tiros 1 despin weight - Pass Details

Date: 23 June 2019
Orbit: 594 x 642 km, 48.2° (Epoch: 20 July)

Event Time Altitude Azimuth Distance (km) Brightness Sun altitude
Rises 23:59:37 0° 244° (WSW) 2,845 - -18.4°
Reaches altitude 10° 00:01:56 10° 241° (WSW) 1,938 - -18.4°
Exits shadow 00:03:47 24° 235° (SW) 1,246 ? -18.4°
Maximum altitude 00:06:19 63° 161° (SSE) 670 ? -18.4°
Drops below altitude 10° 00:10:41 10° 81° (E) 1,929 ? -18.3°
Sets 00:12:59 0° 78° (ENE) 2,831 ? -18.3°
